Guymon, OK

1:08 AM CDT on September 20, 2017 (GMT -0500)
Guymon Municipal

Weather History for KGUY - April, 2013

Change the Weather History Date:

Monday, April 29, 2013

  Actual Average Record
Temperature  
Mean Temperature 71 °F 60 °F  
Max Temperature 89 °F 75 °F 94 °F (2011)
Min Temperature 52 °F 45 °F 33 °F (2017)
Degree Days  
Heating Degree Days 0 6  
Month to date heating degree days 422 300  
Since 1 July heating degree days 4213 4348  
Cooling Degree Days 6 1  
Month to date cooling degree days 13 9  
Year to date cooling degree days 13 11  
Growing Degree Days 21 (Base 50)    
Moisture  
Dew Point 31 °F    
Average Humidity 26    
Maximum Humidity 41    
Minimum Humidity 10    
Precipitation  
Precipitation 0.00 in 0.05 in 1.49 in (2016)
Month to date precipitation 0.49 1.46  
Year to date precipitation 2.19 3.76  
Snow  
Snow 0.00 in - - ()
Month to date snowfall T  
Since 1 July snowfall 22.0  
Snow Depth 0.00 in    
Sea Level Pressure  
Sea Level Pressure 29.59 in    
Wind  
Wind Speed 10 mph (SSW)    
Max Wind Speed 23 mph    
Max Gust Speed 30 mph    
Visibility 10 miles    
Events      
T = Trace of Precipitation, MM = Missing Value Source: NWS Daily Summary

Daily Weather History Graph

Daily Weather History Graph

Search for Another Location

Airport or City:

Trip Planner

Search our weather history database for the weather conditions in past years. The results will help you decide how hot, cold, wet, or windy it might be!

Date:

Astronomy

Apr. 29, 2013 Rise Set
Actual Time 6:54 AM CDT 8:33 PM CDT
Civil Twilight 6:26 AM CDT 9:00 PM CDT
Nautical Twilight 5:53 AM CDT 9:34 PM CDT
Astronomical Twilight 5:18 AM CDT 10:09 PM CDT
Moon 12:01 AM CDT (4/29) 10:19 AM CDT (4/29)
Length of Visible Light 14h 34m
Length of Day
13h 38m
Waning Gibbous, 80% of the Moon is Illuminated
Apr 29
Waning Gibbous
May 2
Last Quarter
May 9
New
May 17
First Quarter
May 24
Full

Hourly Weather History & Observations

Time (CDT) Temp. Dew Point Humidity Pressure Visibility Wind Dir Wind Speed Gust Speed Precip Events Conditions
12:53 AM 59.0 °F 27.0 °F 29% 29.65 in 10.0 mi South 9.2 mph - N/A   Clear
1:53 AM 53.1 °F 28.0 °F 38% 29.66 in 10.0 mi SSW 9.2 mph - N/A   Clear
2:53 AM 54.0 °F 30.0 °F 40% 29.64 in 10.0 mi SSW 8.1 mph - N/A   Clear
3:53 AM 57.9 °F 30.9 °F 36% 29.62 in 10.0 mi SSW 11.5 mph - N/A   Clear
4:53 AM 57.9 °F 33.1 °F 39% 29.62 in 10.0 mi SSW 11.5 mph - N/A   Clear
5:53 AM 63.0 °F 34.0 °F 34% 29.60 in 10.0 mi SSW 23.0 mph - N/A   Clear
6:53 AM 61.0 °F 35.1 °F 38% 29.62 in 10.0 mi SSW 17.3 mph - N/A   Clear
7:24 AM 57.2 °F 35.6 °F 44% 29.78 in 10.0 mi SSW 10.4 mph - N/A   Clear
7:53 AM 59.0 °F 36.0 °F 42% 29.67 in 10.0 mi SSW 6.9 mph - N/A   Clear
8:53 AM 64.9 °F 32.0 °F 29% 29.68 in 10.0 mi WSW 19.6 mph 25.3 mph N/A   Clear
9:53 AM 63.0 °F 30.9 °F 30% 29.70 in 10.0 mi West 16.1 mph 21.9 mph N/A   Clear
10:53 AM 66.0 °F 34.0 °F 30% 29.69 in 10.0 mi West 12.7 mph - N/A   Clear
11:53 AM 72.0 °F 33.1 °F 24% 29.66 in 10.0 mi West 10.4 mph - N/A   Clear
12:53 PM 77.0 °F 34.0 °F 21% 29.64 in 10.0 mi West 9.2 mph - N/A   Clear
1:53 PM 80.1 °F 33.1 °F 18% 29.62 in 10.0 mi SSW 4.6 mph - N/A   Clear
2:53 PM 84.0 °F 33.1 °F 16% 29.59 in 10.0 mi Variable 4.6 mph - N/A   Clear
3:53 PM 86.0 °F 32.0 °F 14% 29.55 in 10.0 mi WNW 3.5 mph - N/A   Clear
4:53 PM 89.1 °F 30.0 °F 12% 29.51 in 10.0 mi SW 10.4 mph - N/A   Clear
5:53 PM 88.0 °F 28.0 °F 12% 29.48 in 10.0 mi SSW 8.1 mph - N/A   Clear
6:53 PM 88.0 °F 25.0 °F 10% 29.47 in 10.0 mi South 9.2 mph - N/A   Clear
7:53 PM 86.0 °F 26.1 °F 11% 29.47 in 10.0 mi Calm Calm - N/A   Clear
8:53 PM 79.0 °F 28.9 °F 16% 29.48 in 10.0 mi East 3.5 mph - N/A   Clear
9:53 PM 75.9 °F 27.0 °F 16% 29.49 in 10.0 mi SE 4.6 mph - N/A   Clear
10:53 PM 68.0 °F 28.0 °F 22% 29.50 in 10.0 mi SE 9.2 mph - N/A   Clear
11:53 PM 71.1 °F 33.1 °F 25% 29.47 in 10.0 mi South 16.1 mph 23.0 mph N/A   Clear